Voltar ao catálogo

STARLINK-2558

AtivoComunicaçõesVLEO
NORAD 48282·PAYLOAD·🇺🇸 United States

Lançado Apr 29, 2021 de Cape Canaveral Space Force Station

Loading…

Próximas Passagens (próximas 24 horas)

TLE

AtualizadoSource: CelesTrak SupGP

Época: Sep 15, 2026, 00:49 UTC

1 48282C 21036G   26258.03451389  .00028854  00000+0  92751-3 0  2583
2 48282  53.1578 274.2658 0001165  92.5083 309.5863 15.31699916    14

Acompanhe STARLINK-2558 em tempo real com AllMySat

Download on the App Store